Location: Gudip?du
(17.0263°N, 80.8301°E)
Time: 00:48:58
(UTC+00:00)

SWIFT - Pass Details

Date: 03 August 2024
Orbit: 492 x 502 km, 20.6° (Epoch: 18 September)

Event Time Altitude Azimuth Distance (km) Brightness Sun altitude
Rises 13:43:48 0° 245° (WSW) 2,606 6.5 -8.8°
Reaches altitude 10° 13:46:05 10° 240° (WSW) 1,719 5.4 -9.3°
Maximum altitude 13:49:58 51° 163° (SSE) 640 2.4 -10.2°
Enters shadow 13:53:15 14° 89° (E) 1,492 4.0 -10.9°
